Location: Kopernik Observatory
(42.0014°N, 76.0372°W)
Time: 23:44:05
(UTC-04:00)

Daily predictions for brighter satellites

Satellite Brightness Start Highest point End
(mag) Time Altitude Azimuth Time Altitude Azimuth Time Altitude Azimuth
ERS-1 Rocket 4.3 20:09:32 10° ESE 20:13:16 21° ENE 20:17:00 10° NNE
Cosmos 1975 3.7 20:10:06 10° SSE 20:13:43 30° E 20:17:20 10° NNE
FENGYUN 3A 3.7 20:12:45 10° SSE 20:18:00 61° ENE 20:23:17 10° N
Lacrosse 5 rocket 1.0 20:14:24 10° NW 20:18:10 88° SW 20:21:47 10° SE
Cosmos 1656 4.0 20:14:29 10° S 20:19:44 42° ESE 20:24:56 10° NE
BREEZE-M DEB (TANK) 4.3 20:17:01 10° NW 20:19:51 35° NNE 20:26:51 10° E
Cosmos 1934 Rocket 4.0 20:15:49 10° S 20:21:58 87° E 20:28:16 10° N
Helios 1B rocket 3.5 20:20:56 10° N 20:24:56 50° WNW 20:28:55 10° SSW
Cosmos 1544 Rocket 4.1 20:21:59 10° SSW 20:26:20 65° W 20:30:44 10° N
Cosmos 1898 Rocket 4.1 20:22:11 10° N 20:27:12 41° ENE 20:32:08 10° SE
DELTA 2 R/B (1) 3.9 20:21:48 10° W 20:27:16 57° SSW 20:32:20 12° ESE
Okean 2 4.0 20:23:19 10° NNW 20:27:28 63° W 20:31:32 10° S
CZ-2D R/B 3.2 20:24:41 10° SSE 20:28:32 68° ENE 20:32:24 10° N
Cosmos 2227 Rocket 2.3 20:22:53 10° NNW 20:28:35 81° WSW 20:34:13 10° SSE
Resurs 01 Rocket 2.9 20:25:53 10° S 20:30:07 45° W 20:34:24 10° NNW
Cosmos 1500 3.9 20:32:16 10° SSE 20:35:39 32° E 20:39:03 10° NNE
Meteor 1-12 Rocket 4.3 20:30:29 10° S 20:36:09 67° E 20:41:58 10° NNE
CZ-4 DEB 4.0 20:34:36 15° ESE 20:36:28 24° ENE 20:39:06 10° NNE
OAO 2 Rocket 4.1 20:35:43 10° WSW 20:40:18 37° S 20:43:52 16° ESE
Cosmos 468 Rocket 4.2 20:36:23 10° S 20:41:12 44° ESE 20:46:05 10° NNE
Cosmos 2297 Rocket 2.3 20:37:59 10° NNW 20:43:41 85° WSW 20:49:20 10° SSE
Cosmos 1340 4.2 20:41:32 10° NNE 20:44:17 19° ENE 20:45:27 17° E
Cosmos 2082 4.1 20:38:52 10° NNW 20:44:26 65° WSW 20:49:59 10° S
ALOS 2.7 20:43:54 10° S 20:48:32 66° W 20:53:12 10° NNW
Cosmos 1346 Rocket 4.3 20:46:33 10° NNW 20:50:15 38° W 20:53:57 10° SSW
Cosmos 1939 Rocket 3.7 20:49:05 18° SE 20:51:30 34° ENE 20:55:16 10° N
Cosmos 1814 Rocket 4.2 20:47:40 10° S 20:52:47 48° ESE 20:57:53 10° NNE
USA 186 2.1 20:52:30 10° S 20:55:31 59° WSW 20:58:22 10° NNW
OTV 4 2.9 20:55:51 10° SW 20:57:19 13° SSW 20:58:28 11° S
Cosmos 1515 3.6 20:55:14 10° N 20:59:06 83° E 21:02:35 12° S
ASTEX 1 4.4 21:00:50 10° NNE 21:04:59 26° E 21:06:03 24° ESE
Cosmos 2173 Rocket 4.1 21:01:07 10° SSE 21:07:17 55° E 21:13:27 10° NNE
Cosmos 1825 Rocket 3.9 21:03:35 10° N 21:07:50 43° ENE 21:09:42 28° SE
Cosmos 858 Rocket 4.5 21:04:03 10° NNW 21:09:22 85° ENE 21:13:20 18° SSE
Cosmos 1743 2.8 21:13:07 23° SSE 21:15:19 55° E 21:19:10 10° NNE
RESURS DK-1 2.3 21:13:42 10° NNW 21:17:52 82° ENE 21:19:38 34° SSE
Tiangong 1 0.9 21:15:20 10° W 21:18:26 74° SSW 21:18:49 62° SE
BREEZE-M DEB (TANK) 4.0 21:02:00 10° WSW 21:18:40 74° SSE 21:22:26 18° ENE
Cosmos 1953 Rocket 4.0 21:14:30 10° N 21:18:46 42° ENE 21:19:56 35° ESE
Cosmos 1697 Rocket 2.7 21:13:45 10° SSW 21:19:24 85° WNW 21:25:06 10° NNE
Cosmos 1066 Rocket 4.3 21:14:49 10° NNW 21:20:31 84° W 21:25:46 13° S
H-2A R/B 2.3 21:20:46 37° ESE 21:21:45 45° ENE 21:25:44 10° N
Cosmos 2100 Rocket 3.9 21:16:16 10° S 21:22:32 80° E 21:28:46 10° N
Iridium 4 Rocket 3.9 21:18:36 10° N 21:23:31 57° W 21:27:59 10° SSW
Envisat 2.9 21:23:25 26° SSE 21:26:20 76° ENE 21:31:25 10° N
YAOGAN 11 4.4 21:24:13 18° S 21:27:28 70° WSW 21:31:55 10° NNW
Cosmos 1937 Rocket 3.5 21:23:42 10° NNW 21:29:00 81° WSW 21:32:04 26° SSE
SL-16 R/B 3.4 21:31:24 23° ENE 21:31:24 23° ENE 21:34:26 10° NE
Cosmos 2084 4.4 21:27:17 10° NW 21:31:08 39° WSW 21:33:09 24° S
Cosmos 2061 Rocket 3.9 21:26:23 10° S 21:32:42 86° E 21:38:58 10° N
ARGOS 3.9 21:34:52 31° E 21:35:51 33° ENE 21:40:38 10° N
Cosmos 1758 Rocket 3.6 21:33:06 10° N 21:37:24 56° E 21:37:55 53° ESE
Cosmos 990 Rocket 3.9 21:34:35 10° NNW 21:39:53 88° WSW 21:42:00 37° SSE
Cosmos 1980 Rocket 2.1 21:37:14 10° SSW 21:42:55 89° WNW 21:48:40 10° NNE
deb Chang Zheng 4 3.5 21:38:37 10° NNE 21:43:05 73° ESE 21:44:26 44° S
Lacrosse 5 2.2 21:38:18 10° NW 21:43:16 58° SW 21:44:53 39° S
Cosmos 1842 3.5 21:42:36 10° N 21:46:02 52° NE 21:46:02 52° NE
H-2A R/B 3.5 21:46:51 21° ENE 21:46:51 21° ENE 21:50:15 10° NNE
MetOp-B 4.1 21:46:49 47° SE 21:48:16 67° ENE 21:53:36 10° N
SPOT 5 2.8 21:49:22 51° SSE 21:50:37 80° ENE 21:55:26 10° N
ERS-1 Rocket 3.8 21:48:21 19° SSW 21:51:42 48° W 21:56:34 10° NNW
Cosmos 1459 Rocket 4.3 21:45:46 10° SSW 21:51:45 66° W 21:57:51 10° N
Cosmos 1725 Rocket 3.9 21:53:16 41° SSE 21:55:24 64° E 22:01:35 10° NNE
BREEZE-M TANK 2.8 21:49:43 10° WNW 21:57:44 58° SSW 21:58:04 56° S
Cosmos 836 Rocket 4.4 21:56:49 55° SSE 21:57:44 66° ESE 22:03:01 10° NNE
Cosmos 1666 3.3 22:00:57 50° N 22:00:57 50° N 22:03:51 10° N
Cosmos 2058 Rocket 3.0 22:03:45 82° S 22:03:56 90° S 22:08:29 10° N
Cosmos 2098 Rocket 3.9 22:00:54 28° S 22:04:48 86° E 22:10:32 10° N
Cosmos 1763 Rocket 3.7 22:00:19 10° SSW 22:05:22 65° WNW 22:10:26 10° NNE
SPOT 1/Viking Rocket 3.5 22:05:15 62° E 22:05:38 65° ENE 22:10:48 10° N
Cosmos 1606 Rocket 4.3 22:06:33 29° SW 22:08:31 50° WNW 22:12:51 10° N
Cosmos 2263 Rocket 2.9 22:03:53 10° N 22:08:59 36° ENE 22:09:09 36° ENE
Meteor 2-5 Rocket 4.5 22:07:56 10° N 22:13:10 38° ENE 22:13:10 38° ENE
Terra 3.2 22:15:54 26° NE 22:15:54 26° NE 22:18:54 10° N
Meteor 1-15 Rocket 4.2 22:13:43 53° S 22:15:12 86° E 22:21:07 10° N
YAOGAN 6 3.6 22:16:13 46° NW 22:16:13 46° NW 22:19:03 10° NNW
Cosmos 1125 Rocket 3.3 22:10:23 10° NNW 22:15:37 79° ENE 22:15:41 79° E
Cosmos 2322 Rocket 2.2 22:16:55 63° ENE 22:16:55 63° ENE 22:21:56 10° NNE
Cosmos 2233 Rocket 3.9 22:19:10 61° E 22:19:16 61° E 22:25:24 10° NNE
Cosmos 1340 4.4 22:16:46 10° NNW 22:20:02 28° W 22:20:21 27° WSW
USA 215 3.8 22:18:44 36° ENE 22:20:51 47° NNE 22:27:03 10° NW
BREEZE-M DEB (TANK) 3.9 22:04:18 10° WNW 22:24:09 74° NNE 22:25:51 52° E
Meteor 2-9 Rocket 4.4 22:26:58 44° SW 22:28:34 64° WNW 22:33:57 10° N
Cosmos 841 Rocket 4.4 22:23:52 10° SW 22:28:54 47° WNW 22:33:56 10° N
Cosmos 540 Rocket 4.2 22:42:33 45° NNE 22:42:33 45° NNE 22:46:04 10° NNE
SL-16 R/B 3.0 23:13:10 45° WNW 23:13:38 46° WNW 23:19:06 10° NNE
ARGOS 4.5 23:16:24 32° W 23:16:24 32° W 23:20:52 10° NNW
Cosmos 1844 Rocket 4.2 23:15:59 10° N 23:19:29 27° NNE 23:19:29 27° NNE
H-2A R/B 3.4 23:27:30 33° NW 23:27:30 33° NW 23:30:30 10° NNW
Cosmos 2360 Rocket 3.6 23:30:08 31° NNE 23:30:08 31° NNE 23:32:57 10° NNE
Terra 4.1 23:54:47 20° NW 23:54:47 20° NW 23:56:40 10° NW
Cosmos 2263 Rocket 3.9 23:47:55 10° NW 23:50:51 26° WNW 23:50:51 26° WNW
